SCP
0 0 0 0 0 0 0 0 0 0 0 0 0 0 0 0 0 0 0 0 0 0 0 0 0 0 0 0 0 0 0 0 0 0 0 0 0 0 0 0 0 0 0 0
0 0 0 0 0 0 0 0 0 0 0 0 0 0 0 0 0 0 0 0 0 0 0 0 0 0 0 0 0 0 0 0 0 0 0 0 0 0 0 0 0 0 0 0
0 0 0 0 0 0 0 0 0 0 0 0 0 0 0 0 0 0 0 0 0 0 0 0 0 0 0 0 0 0 0 0 0 0 0 0 0 0 0 0 0 0 0 0
0 0 0 0 0 0 0 0 0 0 0 0 0 0 0 0 0 0 0 0 0 0 0 0 0 0 0 0 0 0 0 0 0 0 0 0 0 0 0 0 0 0 0 0
0 0 0 0 0 0 0 0 0 0 0 0 0 0 0 0 0 0 0 0 0 0 0 0 0 0 0 0 0 0 0 0 0 0 0 0 0 0 0 0 0 0 0 0
0 0 0 0 0 0 0 0 0 0 0 0 0 0 0 0 0 0 0 0 0 0 0 0 0 0 0 0 0 0 0 0 0 0 0 0 0 0 0 0 0 0 0 0
0 0 0 0 0 0 0 0 0 0 0 0 0 0 0 0 0 0 0 0 0 0 0 0 0 0 0 0 0 0 0 0 0 0 0 0 0 0 0 0 0 0 0 0
0 0 0 0 0 0 0 0 0 0 0 0 0 0 0 0 0 0 0 0 0 0 0 0 0 0 0 0 0 0 0 0 0 0 0 0 0 0 0 0 0 0 0 0
0 0 0 0 0 0 0 0 0 0 0 0 0 0 0 0 0 0 0 0 0 0 0 0 0 0 0 0 0 0 0 0 0 0 0 0 0 0 0 0 0 0 0 0
0 0 0 0 0 0 0 0 0 0 0 0 0 0 0 0 0 0 0 0 0 0 0 0 0 0 0 0 0 0 0 0 0 0 0 0 0 0 0 0 0 0 0 0
0 0 0 0 0 0 0 0 0 0 0 0 0 0 0 0 0 0 0 0 0 0 0 0 0 0 0 0 0 0 0 0 0 0 0 0 0 0 0 0 0 0 0 0
0 0 0 0 0 0 0 0 0 0 0 0 0 0 0 0 0 0 0 0 0 0 0 0 0 0 0 0 0 0 0 0 0 0 0 0 0 0 0 0 0 0 0 0
0 0 0 0 0 0 0 0 0 0 0 0 0 0 0 0 0 0 0 0 0 0 0 0 0 0 0 0 0 0 0 0 0 0 0 0 0 0 0 0 0 0 0 0
0 0 0 0 0 0 0 0 0 0 0 0 0 0 0 0 0 0 0 0 0 0 0 0 0 0 0 0 0 0 0 0 0 0 0 0 0 0 0 0 0 0 0 0
0 0 0 0 0 0 0 0 0 0 0 0 0 0 0 0 0 0 0 0 0 0 0 0 0 0 0 0 0 0 0 0 0 0 0 0 0 0 0 0 0 0 0 0
0 0 0 0 0 0 0 0 0 0 0 0 0 0 0 0 0 0 0 0 0 0 0 0 0 0 0 0 0 0 0 0 0 0 0 0 0 0 0 0 0 0 0 0
0 0 0 0 0 0 0 0 0 0 0 0 0 0 0 0 0 0 0 0 0 0 0 0 0 0 0 0 0 0 0 0 0 0 0 0 0 0 0 0 0 0 0 0
0 0 0 0 0 0 0 0 0 0 0 0 0 0 0 0 0 0 0 0 0 0 0 0 0 0 0 0 0 0 0 0 0 0 0 0 0 0 0 0 0 0 0 0
0 0 0 0 0 0 0 0 0 0 0 0 0 0 0 0 0 0 0 0 0 0 0 0 0 0 0 0 0 0 0 0 0 0 0 0 0 0 0 0 0 0 0 0
0 0 0 0 0 0 0 0 0 0 0 0 0 0 0 0 0 0 0 0 0 0 0 0 0 0 0 0 0 0 0 0 0 0 0 0 0 0 0 0 0 0 0 0
0 0 0 0 0 0 0 0 0 0 0 0 0 0 0 0 0 0 0 0 0 0 0 0 0 0 0 0 0 0 0 0 0 0 0 0 0 0 0 0 0 0 0 0
0 0 0 0 0 0 0 0 0 0 0 0 0 0 0 0 0 0 0 0 0 0 0 0 0 0 0 0 0 0 0 0 0 0 0 0 0 0 0 0 0 0 0 0
0 0 0 0 0 0 0 0 0 0 0 0 0 0 0 0 0 0 0 0 0 0 0 0 0 0 0 0 0 0 0 0 0 0 0 0 0 0 0 0 0 0 0 0
0 0 0 0 0 0 0 0 0 0 0 0 0 0 0 0 0 0 0 0 0 0 0 0 0 0 0 0 0 0 0 0 0 0 0 0 0 0 0 0 0 0 0 0
0 0 0 0 0 0 0 0 0 0 0 0 0 0 0 0 0 0 0 0 0 0 0 0 0 0 0 0 0 0 0 0 0 0 0 0 0 0 0 0 0 0 0 0
0 0 0 0 0 0 0 0 0 0 0 0 0 0 0 0 0 0 0 0 0 0 0 0 0 0 0 0 0 0 0 0 0 0 0 0 0 0 0 0 0 0 0 0
0 0 0 0 0 0 0 0 0 0 0 0 0 0 0 0 0 0 0 0 0 0 0 0 0 0 0 0 0 0 0 0 0 0 0 0 0 0 0 0 0 0 0 0
Wind_Speed
8 10 19 18 21 23 24 23 20 25 28 25 16 12 9 7 6 7 7 8 8 8 8 8 8 8 8 8 7 7 8 8 8 7 6 7 8 9 9 9 10 10 11 10
4 10 16 15 22 26 28 30 29 27 29 19 13 12 13 12 9 10 11 10 9 9 9 10 10 10 9 9 8 7 8 7 6 6 7 7 8 8 9 9 9 10 10 11
8 7 7 14 25 29 27 28 28 32 31 10 10 14 16 14 13 14 14 11 10 11 11 10 10 10 11 9 8 7 7 6 6 7 7 8 8 9 10 10 10 10 10 11
8 9 14 17 15 21 26 28 28 25 17 14 16 15 13 13 14 14 13 12 11 10 10 9 9 9 9 9 9 8 8 7 7 8 8 8 8 9 9 8 10 10 10 11
8 12 14 11 11 21 23 26 26 27 22 13 6 5 12 13 13 14 12 10 8 8 7 7 9 9 9 9 9 9 9 9 9 9 9 9 9 9 8 9 9 8 9 11
9 13 18 15 12 12 12 21 18 21 20 14 9 12 15 9 9 10 8 6 5 4 5 7 8 9 10 10 10 11 10 9 8 8 9 10 10 9 7 8 8 9 8 8
12 12 13 5 9 17 17 15 7 13 16 15 17 17 8 2 3 3 3 2 2 4 5 5 7 9 10 9 10 7 7 7 8 8 8 8 8 8 9 8 9 8 9 7
12 13 14 8 14 17 9 3 5 7 9 12 13 10 5 2 0 1 2 2 2 3 3 4 6 8 8 8 5 6 7 8 8 8 7 7 9 9 9 10 10 10 9 8
13 12 3 11 10 6 3 5 4 5 5 8 8 6 4 2 1 2 2 2 3 3 4 3 4 5 6 5 6 7 8 7 7 7 7 8 9 10 9 9 8 9 9 8
6 7 6 6 3 2 2 3 2 3 3 6 6 5 5 4 3 3 3 3 3 4 4 3 2 2 3 5 6 8 8 8 7 8 8 7 7 8 8 9 9 9 9 9
7 3 4 4 6 5 5 5 5 5 4 5 7 6 5 5 4 4 4 3 3 3 3 3 3 3 3 5 6 7 7 7 7 7 7 7 6 5 7 6 7 9 9 10
8 7 7 7 5 6 7 6 6 7 6 6 6 7 7 6 5 5 5 4 4 4 4 3 3 3 3 3 5 7 6 6 5 5 5 6 6 4 5 5 6 8 8 8
1 2 4 6 5 5 7 7 8 8 8 8 7 6 7 6 6 6 6 6 5 4 4 4 4 3 2 2 3 5 5 5 5 5 5 6 6 6 6 5 6 8 10 12
3 4 6 5 5 7 9 11 11 11 10 8 7 7 7 7 7 7 6 5 5 5 5 4 4 3 2 1 2 3 4 4 5 5 5 5 6 6 6 7 6 5 8 12
7 5 7 9 9 9 8 9 11 10 9 9 7 7 7 7 7 6 5 4 5 6 5 4 4 4 3 1 2 2 3 3 3 3 4 4 5 5 5 6 6 5 4 7
4 9 10 10 10 8 8 8 10 8 7 7 7 7 6 7 7 6 6 6 5 6 5 4 4 4 3 2 1 1 1 2 3 3 4 4 5 5 5 6 6 6 6 7
4 5 6 7 7 7 7 7 7 6 6 6 6 5 5 6 7 7 7 6 6 6 6 5 5 4 4 2 1 0 1 2 3 3 4 4 5 5 5 6 6 6 6 7
7 6 6 6 6 7 7 7 7 6 5 4 4 6 7 7 6 5 4 4 4 6 7 7 6 4 4 4 2 1 0 1 2 3 3 3 4 4 5 5 6 7 5 6
9 9 9 9 7 7 7 6 6 5 5 5 5 6 6 6 5 4 4 4 5 5 7 8 8 5 4 4 3 1 1 1 2 2 2 3 4 4 5 5 6 6 5 5
8 8 9 9 9 7 6 5 5 5 5 5 4 5 5 5 5 4 4 4 4 4 5 6 6 4 4 4 4 2 2 2 2 2 3 3 4 5 5 5 6 6 6 6
7 7 7 7 6 7 6 5 4 5 5 5 4 4 3 3 4 3 2 2 3 5 6 6 4 4 4 4 3 2 2 2 3 3 3 4 4 5 5 6 6 6 6 6
4 5 5 4 4 4 4 4 4 4 4 4 4 3 2 3 3 2 1 1 3 6 5 4 4 5 5 4 2 2 2 3 3 3 3 4 4 5 5 6 6 6 6 6
3 3 3 3 3 2 2 3 3 3 3 3 2 3 2 2 2 2 1 2 4 6 5 4 6 7 5 3 2 2 3 3 3 4 4 4 5 5 6 6 6 6 6 6
2 2 2 2 1 1 1 2 2 2 2 2 2 2 2 2 2 1 2 4 6 6 5 6 7 7 5 3 3 3 3 3 4 4 5 5 5 5 6 6 6 6 6 7
1 1 1 1 1 1 1 2 2 2 2 2 3 2 2 2 3 3 4 5 6 6 5 5 7 7 4 3 3 3 4 4 4 5 5 5 5 6 6 6 6 6 6 7
1 2 2 2 2 2 2 2 2 2 2 3 3 2 2 2 4 4 4 5 6 6 5 4 4 5 4 4 4 5 5 5 5 5 6 6 6 7 6 6 8 7 6 6
2 2 2 2 2 2 2 2 3 3 3 3 4 3 3 4 4 4 5 4 4 4 4 4 4 4 4 4 5 5 5 5 5 5 6 6 6 6 6 8 7 6 6 6
Wind_Direction
198 169 175 191 197 196 206 216 225 236 243 243 237 243 251 253 247 248 250 242 234 228 222 216 212 211 210 208 200 196 197 200 200 188 178 168 165 164 160 161 159 156 153 150
154 176 181 195 203 203 212 219 229 242 249 248 242 241 250 253 250 254 257 251 238 228 222 217 210 206 202 202 194 190 193 193 179 168 161 160 157 152 150 150 146 148 153 153
179 160 165 214 207 206 215 222 226 236 245 232 220 227 236 244 245 250 254 251 239 232 226 217 209 201 199 194 184 184 183 173 167 165 161 159 155 154 154 153 149 152 155 155
146 152 210 228 207 206 217 224 225 234 243 227 230 235 237 238 243 249 251 249 244 236 230 213 200 196 190 179 178 180 181 177 172 170 164 157 157 158 155 152 156 155 156 156
169 198 234 240 197 202 212 231 227 234 240 233 226 251 251 241 238 245 252 249 244 232 220 196 189 183 175 177 178 183 187 184 177 172 166 163 164 162 155 154 154 153 155 156
177 203 225 235 189 180 196 243 226 224 234 224 194 237 250 235 227 240 248 248 238 208 186 184 179 169 173 180 185 194 191 181 173 171 169 169 166 158 153 152 151 146 149 155
195 215 240 216 155 154 193 234 196 206 219 210 212 229 245 231 227 235 243 243 186 172 179 180 164 166 178 185 197 187 163 160 166 169 168 164 156 153 151 147 144 146 146 148
198 218 229 159 158 184 210 145 171 190 206 207 217 224 225 217 190 91 88 90 118 145 149 145 156 168 182 193 174 147 153 160 164 164 162 157 154 152 153 152 151 151 149 149
200 216 143 165 187 198 167 183 185 183 189 191 197 205 193 177 131 83 78 82 94 123 125 128 152 169 181 167 145 148 153 160 160 159 160 161 161 160 159 163 163 162 164 164
200 215 184 185 182 170 162 172 160 156 157 163 166 156 143 128 109 91 73 71 83 109 121 121 130 138 143 138 146 152 159 160 160 163 164 164 167 170 172 175 174 173 174 172
207 177 151 202 199 178 148 122 108 94 94 124 131 123 121 112 98 86 74 64 76 94 104 104 112 117 122 142 151 155 158 159 162 167 166 169 174 183 187 192 191 182 182 177
208 181 179 185 184 166 148 139 132 119 94 74 91 108 104 95 84 80 74 65 68 69 78 82 95 100 113 143 153 154 157 163 166 166 167 169 168 169 193 189 193 196 189 183
344 83 106 106 107 118 125 113 104 99 101 94 79 86 96 92 81 78 71 64 64 64 69 76 85 84 80 125 148 158 162 164 165 169 172 174 176 176 173 178 192 196 193 191
39 100 107 101 101 97 102 101 94 84 75 76 80 81 89 90 83 73 63 55 63 68 65 66 72 62 40 93 139 150 159 162 167 174 179 183 187 190 185 182 184 193 200 199
20 53 100 99 90 85 91 99 93 83 77 67 64 71 79 85 79 67 51 50 72 68 56 52 54 38 22 42 129 151 162 166 172 173 180 186 189 192 194 197 198 190 181 195
37 75 84 88 86 80 80 84 91 85 74 69 63 59 65 79 79 66 50 43 61 57 41 36 32 16 12 18 90 147 167 167 169 175 181 188 192 197 200 202 203 201 201 194
83 85 82 89 84 77 68 67 80 84 76 67 58 55 66 79 75 58 47 45 59 56 39 27 11 7 9 9 355 247 184 176 179 188 198 201 204 208 209 210 212 214 215 204
45 60 62 85 96 90 75 63 61 60 53 47 56 64 63 61 60 45 33 44 63 57 34 11 3 13 11 5 356 348 296 205 205 212 213 215 218 220 220 223 224 225 222 217
48 56 57 56 59 72 71 60 49 45 37 37 57 63 61 52 41 30 31 48 44 36 12 356 358 11 5 355 353 343 313 262 241 237 233 229 228 230 231 232 234 234 228 220
49 51 57 57 52 56 63 52 48 48 34 29 53 64 57 38 21 18 44 61 42 4 337 342 349 356 353 348 345 330 306 277 261 253 246 241 239 239 238 238 238 236 234 231
47 49 54 58 57 51 45 37 42 44 30 30 47 52 40 19 8 2 21 64 33 357 344 344 347 345 341 336 328 317 299 282 269 260 254 252 251 250 248 246 245 242 240 239
34 39 44 45 54 50 33 28 33 35 31 31 33 28 22 16 10 11 39 17 342 338 336 337 337 333 331 327 318 305 292 283 275 269 262 259 257 256 254 252 250 249 247 245
31 31 33 31 30 27 23 29 25 22 16 9 3 358 350 333 327 322 327 352 334 329 329 323 321 324 330 323 309 294 284 277 273 271 267 265 263 262 261 259 257 254 253 251
19 14 9 359 350 18 20 9 358 348 331 318 312 303 299 305 303 272 295 308 314 316 314 310 316 327 329 310 297 287 279 275 272 271 270 268 266 265 264 264 262 261 259 257
327 322 323 321 318 318 327 328 325 321 322 313 309 300 277 269 275 291 297 298 304 307 304 308 315 320 314 294 286 280 275 269 269 270 267 266 265 264 263 262 261 262 261 258
273 277 279 277 275 281 288 288 288 296 305 305 304 292 286 279 275 277 280 284 287 289 289 292 295 295 288 283 278 275 273 272 268 263 262 264 265 264 263 262 262 260 260 260
269 267 268 271 258 244 251 257 263 270 270 275 284 283 285 286 283 281 282 282 283 283 281 281 280 278 277 275 273 271 269 267 266 265 264 262 262 261 262 261 261 261 260 258